Time,TemperatureF,DewpointF,PressureIn,WindDirection,WindDirectionDegrees,WindSpeedMPH,WindSpeedGustMPH,Humidity,HourlyPrecipIn,Conditions,Clouds,dailyrainin,SoftwareType,DateUTC
2013-01-11 00:03:00,30.7,30.2,30.05,ENE,67,0.0,0.0,98,0.00,,,0.00,WUHU21623XXSP,2013-01-11 08:03:00,
2013-01-11 00:08:00,30.7,30.2,30.05,ENE,67,0.0,0.0,98,0.00,,,0.00,WUHU21623XXSP,2013-01-11 08:08:00,
2013-01-11 00:13:00,30.7,30.2,30.05,ENE,67,0.0,0.0,98,0.00,,,0.00,WUHU21623XXSP,2013-01-11 08:13:00,
2013-01-11 00:18:00,30.7,30.2,30.05,ENE,67,0.0,0.0,98,0.00,,,0.00,WUHU21623XXSP,2013-01-11 08:18:00,
2013-01-11 00:23:00,30.7,30.2,30.05,ENE,67,0.0,0.0,98,0.00,,,0.00,WUHU21623XXSP,2013-01-11 08:23:00,
2013-01-11 00:28:00,30.7,30.2,30.05,ENE,67,0.0,0.0,98,0.00,,,0.00,WUHU21623XXSP,2013-01-11 08:28:00,
2013-01-11 00:33:00,30.7,30.2,30.05,ENE,67,0.0,0.0,98,0.00,,,0.00,WUHU21623XXSP,2013-01-11 08:33:00,
2013-01-11 00:38:00,30.7,30.2,30.05,ENE,67,0.0,0.0,98,0.00,,,0.00,WUHU21623XXSP,2013-01-11 08:38:00,
2013-01-11 00:43:00,30.7,30.2,30.05,ENE,67,0.0,0.0,98,0.00,,,0.00,WUHU21623XXSP,2013-01-11 08:43:00,
2013-01-11 00:48:00,30.7,30.2,30.05,WNW,292,0.0,0.0,98,0.00,,,0.00,WUHU21623XXSP,2013-01-11 08:48:00,
2013-01-11 00:53:00,30.7,30.2,30.05,WNW,292,0.0,0.0,98,0.00,,,0.00,WUHU21623XXSP,2013-01-11 08:53:00,
2013-01-11 00:58:00,30.7,30.2,30.05,WNW,292,0.0,0.0,98,0.00,,,0.00,WUHU21623XXSP,2013-01-11 08:58:00,
2013-01-11 01:03:00,30.7,30.2,30.06,WNW,292,0.0,0.0,98,0.00,,,0.00,WUHU21623XXSP,2013-01-11 09:03:00,
2013-01-11 01:08:00,30.7,30.2,30.06,WNW,292,0.0,0.0,98,0.00,,,0.00,WUHU21623XXSP,2013-01-11 09:08:00,
2013-01-11 01:13:00,30.7,30.2,30.05,WNW,292,0.0,0.0,98,0.00,,,0.00,WUHU21623XXSP,2013-01-11 09:13:00,
2013-01-11 01:18:00,30.7,30.2,30.06,WNW,292,0.0,0.0,98,0.00,,,0.00,WUHU21623XXSP,2013-01-11 09:18:00,
2013-01-11 01:23:00,30.7,30.2,30.06,WNW,292,0.0,0.0,98,0.00,,,0.00,WUHU21623XXSP,2013-01-11 09:23:00,
2013-01-11 01:28:00,30.6,30.1,30.06,SE,135,0.0,0.0,98,0.00,,,0.00,WUHU21623XXSP,2013-01-11 09:28:00,
2013-01-11 01:33:00,30.6,30.1,30.06,SE,135,0.0,0.0,98,0.00,,,0.00,WUHU21623XXSP,2013-01-11 09:33:00,
2013-01-11 01:38:00,30.6,30.1,30.06,SE,135,0.0,0.0,98,0.00,,,0.00,WUHU21623XXSP,2013-01-11 09:38:00,
2013-01-11 01:43:00,30.6,30.1,30.07,SE,135,0.0,0.0,98,0.00,,,0.00,WUHU21623XXSP,2013-01-11 09:43:00,
2013-01-11 01:48:00,30.4,30.1,30.07,SE,135,0.0,0.0,98,0.00,,,0.00,WUHU21623XXSP,2013-01-11 09:48:00,
2013-01-11 01:53:00,30.4,29.9,30.08,WSW,247,0.0,0.0,98,0.00,,,0.00,WUHU21623XXSP,2013-01-11 09:53:00,
2013-01-11 01:58:00,30.4,29.9,30.08,WSW,247,0.0,0.0,98,0.00,,,0.00,WUHU21623XXSP,2013-01-11 09:58:00,
2013-01-11 02:03:00,30.4,29.9,30.08,WSW,247,0.0,0.0,98,0.00,,,0.00,WUHU21623XXSP,2013-01-11 10:03:00,
2013-01-11 02:08:00,30.4,29.9,30.08,WSW,247,0.0,0.0,98,0.00,,,0.00,WUHU21623XXSP,2013-01-11 10:08:00,
2013-01-11 02:13:00,30.2,29.7,30.08,WSW,247,0.0,0.0,98,0.00,,,0.00,WUHU21623XXSP,2013-01-11 10:13:00,
2013-01-11 02:18:00,30.0,29.5,30.08,WSW,247,0.0,0.0,98,0.00,,,0.00,WUHU21623XXSP,2013-01-11 10:18:00,
2013-01-11 02:23:00,30.0,29.5,30.08,WSW,247,0.0,0.0,98,0.00,,,0.00,WUHU21623XXSP,2013-01-11 10:23:00,
2013-01-11 02:28:00,30.0,29.5,30.08,WSW,247,0.0,0.0,98,0.00,,,0.00,WUHU21623XXSP,2013-01-11 10:28:00,
2013-01-11 02:33:00,30.0,29.5,30.08,WSW,247,0.0,0.0,98,0.00,,,0.00,WUHU21623XXSP,2013-01-11 10:33:00,
2013-01-11 02:38:00,30.0,29.5,30.08,WSW,247,0.0,0.0,98,0.00,,,0.00,WUHU21623XXSP,2013-01-11 10:38:00,
2013-01-11 02:43:00,30.0,29.5,30.08,WSW,247,0.0,0.0,98,0.00,,,0.00,WUHU21623XXSP,2013-01-11 10:43:00,
2013-01-11 02:48:00,30.0,29.5,30.08,WSW,247,0.0,0.0,98,0.00,,,0.00,WUHU21623XXSP,2013-01-11 10:48:00,
2013-01-11 02:53:00,30.0,29.5,30.08,WSW,247,0.0,0.0,98,0.00,,,0.00,WUHU21623XXSP,2013-01-11 10:53:00,
2013-01-11 02:58:00,30.0,29.5,30.09,WSW,247,0.0,0.0,98,0.00,,,0.00,WUHU21623XXSP,2013-01-11 10:58:00,
2013-01-11 03:03:00,30.0,29.5,30.08,WSW,247,0.0,0.0,98,0.00,,,0.00,WUHU21623XXSP,2013-01-11 11:03:00,
2013-01-11 03:08:00,30.0,29.5,30.09,WSW,247,0.0,0.0,98,0.00,,,0.00,WUHU21623XXSP,2013-01-11 11:08:00,
2013-01-11 03:13:00,30.0,29.5,30.09,WSW,247,0.0,0.0,98,0.00,,,0.00,WUHU21623XXSP,2013-01-11 11:13:00,
2013-01-11 03:18:00,29.8,29.3,30.09,WSW,247,0.0,0.0,98,0.00,,,0.00,WUHU21623XXSP,2013-01-11 11:18:00,
2013-01-11 03:23:00,29.8,29.3,30.09,WSW,247,0.0,0.0,98,0.00,,,0.00,WUHU21623XXSP,2013-01-11 11:23:00,
2013-01-11 03:28:00,29.7,29.3,30.09,East,90,0.0,0.0,98,0.00,,,0.00,WUHU21623XXSP,2013-01-11 11:28:00,
2013-01-11 03:33:00,29.7,29.2,30.09,East,90,0.0,0.0,98,0.00,,,0.00,WUHU21623XXSP,2013-01-11 11:33:00,
2013-01-11 03:38:00,29.5,29.2,30.09,East,90,0.0,0.0,97,0.00,,,0.00,WUHU21623XXSP,2013-01-11 11:38:00,
2013-01-11 03:43:00,29.5,28.7,30.09,East,90,0.0,0.0,97,0.00,,,0.00,WUHU21623XXSP,2013-01-11 11:43:00,
2013-01-11 03:48:00,29.5,28.7,30.09,East,90,0.0,0.0,97,0.00,,,0.00,WUHU21623XXSP,2013-01-11 11:48:00,
2013-01-11 03:53:00,29.5,28.7,30.09,East,90,0.0,0.0,97,0.00,,,0.00,WUHU21623XXSP,2013-01-11 11:53:00,
2013-01-11 03:58:00,29.3,28.5,30.09,East,90,0.0,0.0,97,0.00,,,0.00,WUHU21623XXSP,2013-01-11 11:58:00,
2013-01-11 04:03:00,29.3,28.5,30.09,East,90,0.0,0.0,97,0.00,,,0.00,WUHU21623XXSP,2013-01-11 12:03:00,
2013-01-11 04:08:00,29.1,28.4,30.09,East,90,0.0,0.0,97,0.00,,,0.00,WUHU21623XXSP,2013-01-11 12:08:00,
2013-01-11 04:13:00,29.1,28.4,30.10,East,90,0.0,0.0,97,0.00,,,0.00,WUHU21623XXSP,2013-01-11 12:13:00,
2013-01-11 04:18:00,28.9,28.2,30.10,East,90,0.0,0.0,97,0.00,,,0.00,WUHU21623XXSP,2013-01-11 12:18:00,
2013-01-11 04:23:00,28.9,28.2,30.10,East,90,0.0,0.0,97,0.00,,,0.00,WUHU21623XXSP,2013-01-11 12:23:00,
2013-01-11 04:28:00,28.8,28.0,30.10,East,90,0.0,0.0,97,0.00,,,0.00,WUHU21623XXSP,2013-01-11 12:28:00,
2013-01-11 04:33:00,28.8,28.0,30.10,East,90,0.0,0.0,97,0.00,,,0.00,WUHU21623XXSP,2013-01-11 12:33:00,
2013-01-11 04:38:00,28.8,28.0,30.10,East,90,0.0,0.0,97,0.00,,,0.00,WUHU21623XXSP,2013-01-11 12:38:00,
2013-01-11 04:43:00,28.6,27.8,30.10,East,90,0.0,0.0,97,0.00,,,0.00,WUHU21623XXSP,2013-01-11 12:43:00,
2013-01-11 04:48:00,28.6,27.8,30.10,East,90,0.0,0.0,97,0.00,,,0.00,WUHU21623XXSP,2013-01-11 12:48:00,
2013-01-11 04:53:00,28.4,27.6,30.10,SSE,157,0.0,0.0,97,0.00,,,0.00,WUHU21623XXSP,2013-01-11 12:53:00,
2013-01-11 04:58:00,28.2,27.5,30.10,SSE,157,0.0,0.0,97,0.00,,,0.00,WUHU21623XXSP,2013-01-11 12:58:00,
2013-01-11 05:03:00,28.2,27.5,30.10,SSE,157,0.0,0.0,97,0.00,,,0.00,WUHU21623XXSP,2013-01-11 13:03:00,
2013-01-11 05:08:00,28.0,27.3,30.10,SSE,157,0.0,0.0,97,0.00,,,0.00,WUHU21623XXSP,2013-01-11 13:08:00,
2013-01-11 05:13:00,28.0,27.3,30.10,SSE,157,0.0,0.0,97,0.00,,,0.00,WUHU21623XXSP,2013-01-11 13:13:00,
2013-01-11 05:18:00,28.0,27.3,30.11,SSE,157,0.0,0.0,97,0.00,,,0.00,WUHU21623XXSP,2013-01-11 13:18:00,
2013-01-11 05:23:00,28.0,27.3,30.11,WSW,247,0.0,0.0,97,0.00,,,0.00,WUHU21623XXSP,2013-01-11 13:23:00,
2013-01-11 05:28:00,28.0,27.3,30.11,SW,225,0.0,0.0,97,0.00,,,0.00,WUHU21623XXSP,2013-01-11 13:28:00,
2013-01-11 05:33:00,28.0,27.3,30.11,SW,225,0.0,0.0,97,0.00,,,0.00,WUHU21623XXSP,2013-01-11 13:33:00,
2013-01-11 05:38:00,27.9,27.1,30.12,SW,225,0.0,0.0,97,0.00,,,0.00,WUHU21623XXSP,2013-01-11 13:38:00,
2013-01-11 05:43:00,27.7,26.9,30.12,SW,225,0.0,0.0,97,0.00,,,0.00,WUHU21623XXSP,2013-01-11 13:43:00,
2013-01-11 05:48:00,27.7,26.9,30.12,SW,225,0.0,0.0,97,0.00,,,0.00,WUHU21623XXSP,2013-01-11 13:48:00,
2013-01-11 05:53:00,27.7,26.9,30.12,SW,225,0.0,0.0,97,0.00,,,0.00,WUHU21623XXSP,2013-01-11 13:53:00,
2013-01-11 05:58:00,27.5,26.7,30.12,SW,225,0.0,0.0,97,0.00,,,0.00,WUHU21623XXSP,2013-01-11 13:58:00,
2013-01-11 06:03:00,27.5,26.7,30.12,SW,225,0.0,0.0,97,0.00,,,0.00,WUHU21623XXSP,2013-01-11 14:03:00,
2013-01-11 06:08:00,27.5,26.7,30.13,SW,225,0.0,0.0,97,0.00,,,0.00,WUHU21623XXSP,2013-01-11 14:08:00,
2013-01-11 06:13:00,27.5,26.7,30.13,SW,225,0.0,0.0,97,0.00,,,0.00,WUHU21623XXSP,2013-01-11 14:13:00,
2013-01-11 06:18:00,27.3,26.6,30.14,SW,225,0.0,0.0,97,0.00,,,0.00,WUHU21623XXSP,2013-01-11 14:18:00,
2013-01-11 06:23:00,27.3,26.6,30.14,SW,225,0.0,0.0,97,0.00,,,0.00,WUHU21623XXSP,2013-01-11 14:23:00,
2013-01-11 06:28:00,27.1,26.4,30.14,SW,225,0.0,0.0,97,0.00,,,0.00,WUHU21623XXSP,2013-01-11 14:28:00,
2013-01-11 06:33:00,27.1,26.4,30.14,SW,225,0.0,0.0,97,0.00,,,0.00,WUHU21623XXSP,2013-01-11 14:33:00,
2013-01-11 06:38:00,27.1,26.4,30.14,SW,225,0.0,0.0,97,0.00,,,0.00,WUHU21623XXSP,2013-01-11 14:38:00,
2013-01-11 06:43:00,27.1,26.4,30.14,SW,225,0.0,0.0,97,0.00,,,0.00,WUHU21623XXSP,2013-01-11 14:43:00,
2013-01-11 06:48:00,27.1,26.4,30.15,SW,225,0.0,0.0,97,0.00,,,0.00,WUHU21623XXSP,2013-01-11 14:48:00,
2013-01-11 06:53:00,27.1,26.4,30.15,SW,225,0.0,0.0,97,0.00,,,0.00,WUHU21623XXSP,2013-01-11 14:53:00,
2013-01-11 06:58:00,27.1,26.4,30.15,SW,225,0.0,0.0,97,0.00,,,0.00,WUHU21623XXSP,2013-01-11 14:58:00,
2013-01-11 07:03:00,27.1,26.4,30.15,SW,225,0.0,0.0,97,0.00,,,0.00,WUHU21623XXSP,2013-01-11 15:03:00,
2013-01-11 07:08:00,27.1,26.4,30.16,SW,225,0.0,0.0,97,0.00,,,0.00,WUHU21623XXSP,2013-01-11 15:08:00,
2013-01-11 07:13:00,27.1,26.4,30.16,SW,225,0.0,0.0,97,0.00,,,0.00,WUHU21623XXSP,2013-01-11 15:13:00,
2013-01-11 07:18:00,27.1,26.4,30.16,SW,225,0.0,0.0,97,0.00,,,0.00,WUHU21623XXSP,2013-01-11 15:18:00,
2013-01-11 07:23:00,27.1,26.4,30.16,SW,225,0.0,0.0,97,0.00,,,0.00,WUHU21623XXSP,2013-01-11 15:23:00,
2013-01-11 07:28:00,27.1,26.4,30.17,SW,225,0.0,0.0,97,0.00,,,0.00,WUHU21623XXSP,2013-01-11 15:28:00,
2013-01-11 07:33:00,27.1,26.4,30.17,SW,225,0.0,0.0,97,0.00,,,0.00,WUHU21623XXSP,2013-01-11 15:33:00,
2013-01-11 07:38:00,27.1,26.4,30.17,SW,225,0.0,0.0,97,0.00,,,0.00,WUHU21623XXSP,2013-01-11 15:38:00,
2013-01-11 07:43:00,27.1,26.4,30.18,SW,225,0.0,0.0,97,0.00,,,0.00,WUHU21623XXSP,2013-01-11 15:43:00,
2013-01-11 07:48:00,27.0,26.4,30.18,SW,225,0.0,0.0,97,0.00,,,0.00,WUHU21623XXSP,2013-01-11 15:48:00,
2013-01-11 07:53:00,27.0,26.2,30.18,SW,225,0.0,0.0,97,0.00,,,0.00,WUHU21623XXSP,2013-01-11 15:53:00,
2013-01-11 07:58:00,27.0,26.2,30.18,SW,225,0.0,0.0,97,0.00,,,0.00,WUHU21623XXSP,2013-01-11 15:58:00,
2013-01-11 08:03:00,26.8,26.0,30.19,SW,225,0.0,0.0,97,0.00,,,0.00,WUHU21623XXSP,2013-01-11 16:03:00,
2013-01-11 08:08:00,26.8,26.0,30.19,SW,225,0.0,0.0,97,0.00,,,0.00,WUHU21623XXSP,2013-01-11 16:08:00,
2013-01-11 08:13:00,26.6,25.8,30.19,SW,225,0.0,0.0,97,0.00,,,0.00,WUHU21623XXSP,2013-01-11 16:13:00,
2013-01-11 08:18:00,26.6,25.8,30.19,SW,225,0.0,0.0,97,0.00,,,0.00,WUHU21623XXSP,2013-01-11 16:18:00,
2013-01-11 08:23:00,26.4,25.7,30.20,SW,225,0.0,0.0,97,0.00,,,0.00,WUHU21623XXSP,2013-01-11 16:23:00,
2013-01-11 08:28:00,26.4,25.7,30.20,SW,225,0.0,0.0,97,0.00,,,0.00,WUHU21623XXSP,2013-01-11 16:28:00,
2013-01-11 08:33:00,26.4,25.7,30.20,SW,225,0.0,0.0,97,0.00,,,0.00,WUHU21623XXSP,2013-01-11 16:33:00,
2013-01-11 08:38:00,26.4,25.7,30.20,SW,225,0.0,0.0,97,0.00,,,0.00,WUHU21623XXSP,2013-01-11 16:38:00,
2013-01-11 08:43:00,26.4,25.7,30.20,SW,225,0.0,0.0,97,0.00,,,0.00,WUHU21623XXSP,2013-01-11 16:43:00,
2013-01-11 08:48:00,26.4,25.7,30.20,SW,225,0.0,0.0,97,0.00,,,0.00,WUHU21623XXSP,2013-01-11 16:48:00,
2013-01-11 08:53:00,26.4,25.7,30.20,SW,225,0.0,0.0,97,0.00,,,0.00,WUHU21623XXSP,2013-01-11 16:53:00,
2013-01-11 08:58:00,26.4,25.7,30.21,SW,225,0.0,0.0,97,0.00,,,0.00,WUHU21623XXSP,2013-01-11 16:58:00,
2013-01-11 09:03:00,26.4,25.7,30.21,SW,225,0.0,0.0,97,0.00,,,0.00,WUHU21623XXSP,2013-01-11 17:03:00,
2013-01-11 09:08:00,26.4,25.7,30.21,SW,225,0.0,0.0,97,0.00,,,0.00,WUHU21623XXSP,2013-01-11 17:08:00,
2013-01-11 09:13:00,26.4,25.7,30.21,SW,225,0.0,0.0,97,0.00,,,0.00,WUHU21623XXSP,2013-01-11 17:13:00,
2013-01-11 09:18:00,26.4,25.7,30.21,SW,225,0.0,0.0,97,0.00,,,0.00,WUHU21623XXSP,2013-01-11 17:18:00,
2013-01-11 09:23:00,26.4,25.7,30.21,SW,225,0.0,0.0,97,0.00,,,0.00,WUHU21623XXSP,2013-01-11 17:23:00,
2013-01-11 09:28:00,26.6,25.8,30.21,SW,225,0.0,0.0,97,0.00,,,0.00,WUHU21623XXSP,2013-01-11 17:28:00,
2013-01-11 09:33:00,26.8,26.0,30.22,SW,225,0.0,0.0,97,0.00,,,0.00,WUHU21623XXSP,2013-01-11 17:33:00,
2013-01-11 09:38:00,27.0,26.0,30.22,SW,225,0.0,0.0,97,0.00,,,0.00,WUHU21623XXSP,2013-01-11 17:38:00,
2013-01-11 09:43:00,27.0,26.2,30.22,SW,225,0.0,0.0,97,0.00,,,0.00,WUHU21623XXSP,2013-01-11 17:43:00,
2013-01-11 09:48:00,27.1,26.4,30.22,SW,225,0.0,0.0,97,0.00,,,0.00,WUHU21623XXSP,2013-01-11 17:48:00,
2013-01-11 09:53:00,27.1,26.4,30.22,SW,225,0.0,0.0,97,0.00,,,0.00,WUHU21623XXSP,2013-01-11 17:53:00,
2013-01-11 09:58:00,27.1,26.4,30.22,SW,225,0.0,0.0,97,0.00,,,0.00,WUHU21623XXSP,2013-01-11 17:58:00,
2013-01-11 10:03:00,27.1,26.4,30.22,SW,225,0.0,0.0,97,0.00,,,0.00,WUHU21623XXSP,2013-01-11 18:03:00,
2013-01-11 10:08:00,27.3,26.6,30.22,SW,225,0.0,0.0,97,0.00,,,0.00,WUHU21623XXSP,2013-01-11 18:08:00,
2013-01-11 10:13:00,27.3,26.6,30.23,SW,225,0.0,0.0,97,0.00,,,0.00,WUHU21623XXSP,2013-01-11 18:13:00,
2013-01-11 10:18:00,27.5,26.7,30.23,SW,225,0.0,0.0,97,0.00,,,0.00,WUHU21623XXSP,2013-01-11 18:18:00,
2013-01-11 10:23:00,27.7,26.9,30.23,SW,225,0.0,0.0,97,0.00,,,0.00,WUHU21623XXSP,2013-01-11 18:23:00,
2013-01-11 10:28:00,28.0,27.3,30.23,SW,225,0.0,0.0,97,0.00,,,0.00,WUHU21623XXSP,2013-01-11 18:28:00,
2013-01-11 10:33:00,28.2,27.5,30.23,SW,225,0.0,0.0,97,0.00,,,0.00,WUHU21623XXSP,2013-01-11 18:33:00,
2013-01-11 10:38:00,28.4,27.6,30.23,SW,225,0.0,0.0,97,0.00,,,0.00,WUHU21623XXSP,2013-01-11 18:38:00,
2013-01-11 10:43:00,28.6,27.8,30.23,SW,225,0.0,0.0,97,0.00,,,0.00,WUHU21623XXSP,2013-01-11 18:43:00,
2013-01-11 10:48:00,28.8,28.0,30.23,SW,225,0.0,0.0,97,0.00,,,0.00,WUHU21623XXSP,2013-01-11 18:48:00,
2013-01-11 10:53:00,28.9,28.2,30.23,SW,225,0.0,0.0,97,0.00,,,0.00,WUHU21623XXSP,2013-01-11 18:53:00,
2013-01-11 10:58:00,29.1,28.4,30.24,SW,225,0.0,0.0,97,0.00,,,0.00,WUHU21623XXSP,2013-01-11 18:58:00,
2013-01-11 11:03:00,29.3,28.5,30.23,SW,225,0.0,0.0,97,0.00,,,0.00,WUHU21623XXSP,2013-01-11 19:03:00,
2013-01-11 11:08:00,29.5,28.7,30.23,SW,225,0.0,0.0,97,0.00,,,0.00,WUHU21623XXSP,2013-01-11 19:08:00,
2013-01-11 11:13:00,29.5,28.7,30.23,SW,225,0.0,0.0,97,0.00,,,0.00,WUHU21623XXSP,2013-01-11 19:13:00,
2013-01-11 11:18:00,29.3,28.5,30.24,SW,225,0.0,0.0,97,0.00,,,0.00,WUHU21623XXSP,2013-01-11 19:18:00,
2013-01-11 11:23:00,29.5,28.7,30.24,SW,225,0.0,0.0,97,0.00,,,0.00,WUHU21623XXSP,2013-01-11 19:23:00,
2013-01-11 11:28:00,30.0,29.5,30.24,SW,225,0.0,0.0,98,0.00,,,0.00,WUHU21623XXSP,2013-01-11 19:28:00,
2013-01-11 11:33:00,30.0,29.5,30.24,SW,225,0.0,0.0,98,0.00,,,0.00,WUHU21623XXSP,2013-01-11 19:33:00,
2013-01-11 11:38:00,30.4,29.9,30.23,SW,225,0.0,0.0,98,0.00,,,0.00,WUHU21623XXSP,2013-01-11 19:38:00,
2013-01-11 11:43:00,30.6,30.1,30.23,SW,225,0.0,0.0,98,0.00,,,0.00,WUHU21623XXSP,2013-01-11 19:43:00,
2013-01-11 11:48:00,30.7,30.2,30.23,SW,225,0.0,0.0,98,0.00,,,0.00,WUHU21623XXSP,2013-01-11 19:48:00,
2013-01-11 11:53:00,30.7,30.2,30.23,West,270,0.0,0.0,98,0.00,,,0.00,WUHU21623XXSP,2013-01-11 19:53:00,
2013-01-11 11:58:00,30.9,30.2,30.23,WSW,247,0.0,0.0,97,0.00,,,0.00,WUHU21623XXSP,2013-01-11 19:58:00,
2013-01-11 12:03:00,30.9,30.2,30.23,WSW,247,0.0,0.0,97,0.00,,,0.00,WUHU21623XXSP,2013-01-11 20:03:00,
2013-01-11 12:08:00,30.9,30.2,30.24,WSW,247,0.0,0.0,97,0.00,,,0.00,WUHU21623XXSP,2013-01-11 20:08:00,
2013-01-11 12:13:00,30.9,30.2,30.24,WSW,247,0.0,0.0,97,0.00,,,0.00,WUHU21623XXSP,2013-01-11 20:13:00,
2013-01-11 12:18:00,30.9,30.2,30.24,WSW,247,0.0,0.0,97,0.00,,,0.00,WUHU21623XXSP,2013-01-11 20:18:00,
2013-01-11 12:23:00,31.1,30.3,30.24,WSW,247,0.0,0.0,97,0.00,,,0.00,WUHU21623XXSP,2013-01-11 20:23:00,
2013-01-11 12:28:00,31.3,30.5,30.24,SW,225,0.0,0.0,97,0.00,,,0.00,WUHU21623XXSP,2013-01-11 20:28:00,
2013-01-11 12:33:00,31.3,30.5,30.24,WSW,247,0.0,0.0,97,0.00,,,0.00,WUHU21623XXSP,2013-01-11 20:33:00,
2013-01-11 12:38:00,31.3,30.5,30.24,WSW,247,0.0,0.0,97,0.00,,,0.00,WUHU21623XXSP,2013-01-11 20:38:00,
2013-01-11 12:43:00,31.3,30.5,30.24,WSW,247,0.0,0.0,97,0.00,,,0.00,WUHU21623XXSP,2013-01-11 20:43:00,
2013-01-11 12:48:00,31.1,30.5,30.24,WSW,247,0.0,0.0,97,0.00,,,0.00,WUHU21623XXSP,2013-01-11 20:48:00,
2013-01-11 12:53:00,31.1,30.3,30.24,WSW,247,0.0,0.0,97,0.00,,,0.00,WUHU21623XXSP,2013-01-11 20:53:00,
2013-01-11 12:58:00,30.7,30.2,30.24,WSW,247,0.0,0.0,97,0.00,,,0.00,WUHU21623XXSP,2013-01-11 20:58:00,
2013-01-11 13:03:00,30.7,30.0,30.24,WSW,247,0.0,0.0,97,0.00,,,0.00,WUHU21623XXSP,2013-01-11 21:03:00,
2013-01-11 13:08:00,30.6,29.6,30.24,WSW,247,0.0,0.0,96,0.00,,,0.00,WUHU21623XXSP,2013-01-11 21:08:00,
2013-01-11 13:13:00,30.6,29.6,30.24,WSW,247,0.0,0.0,96,0.00,,,0.00,WUHU21623XXSP,2013-01-11 21:13:00,
2013-01-11 13:18:00,30.6,29.6,30.24,WSW,247,0.0,0.0,96,0.00,,,0.00,WUHU21623XXSP,2013-01-11 21:18:00,
2013-01-11 13:23:00,30.7,29.6,30.24,WSW,247,0.0,0.0,97,0.00,,,0.00,WUHU21623XXSP,2013-01-11 21:23:00,
2013-01-11 13:28:00,31.1,30.2,30.25,WSW,247,0.0,0.0,97,0.00,,,0.00,WUHU21623XXSP,2013-01-11 21:28:00,
2013-01-11 13:33:00,31.3,30.5,30.25,WSW,247,0.0,0.0,97,0.00,,,0.00,WUHU21623XXSP,2013-01-11 21:33:00,
2013-01-11 13:38:00,31.3,30.5,30.25,WSW,247,0.0,0.0,97,0.00,,,0.00,WUHU21623XXSP,2013-01-11 21:38:00,
2013-01-11 13:43:00,31.6,30.9,30.25,WSW,247,0.0,0.0,97,0.00,,,0.00,WUHU21623XXSP,2013-01-11 21:43:00,
2013-01-11 13:48:00,31.8,31.1,30.24,WSW,247,0.0,0.0,97,0.00,,,0.00,WUHU21623XXSP,2013-01-11 21:48:00,
2013-01-11 13:53:00,31.8,31.1,30.25,ESE,112,0.0,0.0,97,0.00,,,0.00,WUHU21623XXSP,2013-01-11 21:53:00,
2013-01-11 13:58:00,31.8,31.1,30.24,ESE,112,0.0,0.0,97,0.00,,,0.00,WUHU21623XXSP,2013-01-11 21:58:00,
2013-01-11 14:03:00,31.8,31.1,30.24,ESE,112,0.0,0.0,97,0.00,,,0.00,WUHU21623XXSP,2013-01-11 22:03:00,
2013-01-11 14:08:00,31.8,31.1,30.24,ESE,112,0.0,0.0,97,0.00,,,0.00,WUHU21623XXSP,2013-01-11 22:08:00,
2013-01-11 14:13:00,32.0,31.2,30.24,East,90,0.0,0.0,97,0.00,,,0.00,WUHU21623XXSP,2013-01-11 22:13:00,
2013-01-11 14:18:00,31.8,31.1,30.24,SE,135,0.0,0.0,97,0.00,,,0.00,WUHU21623XXSP,2013-01-11 22:18:00,
2013-01-11 14:23:00,31.8,31.1,30.24,SE,135,0.0,0.0,97,0.00,,,0.00,WUHU21623XXSP,2013-01-11 22:23:00,
2013-01-11 14:28:00,31.8,31.1,30.24,SE,135,0.0,0.0,97,0.00,,,0.00,WUHU21623XXSP,2013-01-11 22:28:00,
2013-01-11 14:33:00,31.8,31.1,30.24,SE,135,0.0,0.0,97,0.00,,,0.00,WUHU21623XXSP,2013-01-11 22:33:00,
2013-01-11 14:38:00,31.8,31.1,30.23,SE,135,0.0,0.0,97,0.00,,,0.00,WUHU21623XXSP,2013-01-11 22:38:00,
2013-01-11 14:43:00,31.8,31.1,30.24,SE,135,0.0,0.0,97,0.00,,,0.00,WUHU21623XXSP,2013-01-11 22:43:00,
2013-01-11 14:48:00,31.8,31.1,30.24,SE,135,0.0,0.0,97,0.00,,,0.00,WUHU21623XXSP,2013-01-11 22:48:00,
2013-01-11 14:53:00,31.8,31.1,30.24,SE,135,0.0,0.0,97,0.00,,,0.00,WUHU21623XXSP,2013-01-11 22:53:00,
2013-01-11 14:58:00,32.0,31.2,30.24,SE,135,0.0,0.0,97,0.00,,,0.00,WUHU21623XXSP,2013-01-11 22:58:00,
2013-01-11 15:03:00,31.8,31.2,30.24,SE,135,0.0,0.0,97,0.00,,,0.00,WUHU21623XXSP,2013-01-11 23:03:00,
2013-01-11 15:08:00,31.8,31.1,30.25,SE,135,0.0,0.0,97,0.00,,,0.00,WUHU21623XXSP,2013-01-11 23:08:00,
2013-01-11 15:13:00,31.8,31.1,30.25,SE,135,0.0,0.0,97,0.00,,,0.00,WUHU21623XXSP,2013-01-11 23:13:00,
2013-01-11 15:18:00,31.8,31.1,30.25,SE,135,0.0,0.0,97,0.00,,,0.00,WUHU21623XXSP,2013-01-11 23:18:00,
2013-01-11 15:23:00,31.8,31.1,30.25,SE,135,0.0,0.0,97,0.00,,,0.00,WUHU21623XXSP,2013-01-11 23:23:00,
2013-01-11 15:28:00,31.8,31.1,30.25,SE,135,0.0,0.0,97,0.00,,,0.00,WUHU21623XXSP,2013-01-11 23:28:00,
2013-01-11 15:33:00,31.8,31.1,30.25,SE,135,0.0,0.0,97,0.00,,,0.00,WUHU21623XXSP,2013-01-11 23:33:00,
2013-01-11 15:38:00,31.6,31.1,30.25,SE,135,0.0,0.0,97,0.00,,,0.00,WUHU21623XXSP,2013-01-11 23:38:00,
2013-01-11 15:43:00,31.6,30.9,30.25,SE,135,0.0,0.0,97,0.00,,,0.00,WUHU21623XXSP,2013-01-11 23:43:00,
2013-01-11 15:48:00,31.6,30.9,30.25,SE,135,0.0,0.0,97,0.00,,,0.00,WUHU21623XXSP,2013-01-11 23:48:00,
2013-01-11 15:53:00,31.5,30.7,30.25,SE,135,0.0,0.0,97,0.00,,,0.00,WUHU21623XXSP,2013-01-11 23:53:00,
2013-01-11 15:58:00,31.5,30.7,30.25,SE,135,0.0,0.0,97,0.00,,,0.00,WUHU21623XXSP,2013-01-11 23:58:00,
2013-01-11 16:03:00,31.3,30.5,30.25,SE,135,0.0,0.0,97,0.00,,,0.00,WUHU21623XXSP,2013-01-12 00:03:00,
2013-01-11 16:08:00,31.3,30.5,30.25,SE,135,0.0,0.0,97,0.00,,,0.00,WUHU21623XXSP,2013-01-12 00:08:00,
2013-01-11 16:13:00,31.3,30.5,30.26,SE,135,0.0,0.0,97,0.00,,,0.00,WUHU21623XXSP,2013-01-12 00:13:00,
2013-01-11 16:18:00,31.3,30.5,30.25,SE,135,0.0,0.0,97,0.00,,,0.00,WUHU21623XXSP,2013-01-12 00:18:00,
2013-01-11 16:23:00,31.3,30.5,30.25,SE,135,0.0,0.0,97,0.00,,,0.00,WUHU21623XXSP,2013-01-12 00:23:00,
2013-01-11 16:28:00,31.3,30.5,30.25,SE,135,0.0,0.0,97,0.00,,,0.00,WUHU21623XXSP,2013-01-12 00:28:00,
2013-01-11 16:33:00,31.3,30.5,30.26,SE,135,0.0,0.0,97,0.00,,,0.00,WUHU21623XXSP,2013-01-12 00:33:00,
2013-01-11 16:38:00,30.9,30.2,30.26,SE,135,0.0,0.0,97,0.00,,,0.00,WUHU21623XXSP,2013-01-12 00:38:00,
2013-01-11 16:43:00,30.9,30.2,30.26,SE,135,0.0,0.0,97,0.00,,,0.00,WUHU21623XXSP,2013-01-12 00:43:00,
2013-01-11 16:48:00,30.7,30.0,30.26,SE,135,0.0,0.0,97,0.00,,,0.00,WUHU21623XXSP,2013-01-12 00:48:00,
2013-01-11 16:53:00,30.7,30.0,30.26,SE,135,0.0,0.0,97,0.00,,,0.00,WUHU21623XXSP,2013-01-12 00:53:00,
2013-01-11 16:58:00,30.4,29.4,30.26,SE,135,0.0,0.0,96,0.00,,,0.00,WUHU21623XXSP,2013-01-12 00:58:00,
2013-01-11 17:03:00,30.4,29.6,30.26,SE,135,0.0,0.0,97,0.00,,,0.00,WUHU21623XXSP,2013-01-12 01:03:00,
2013-01-11 17:08:00,30.2,29.4,30.26,SE,135,0.0,0.0,97,0.00,,,0.00,WUHU21623XXSP,2013-01-12 01:08:00,
2013-01-11 17:13:00,30.0,29.3,30.26,SE,135,0.0,0.0,97,0.00,,,0.00,WUHU21623XXSP,2013-01-12 01:13:00,
2013-01-11 17:18:00,30.0,29.3,30.27,SE,135,0.0,0.0,97,0.00,,,0.00,WUHU21623XXSP,2013-01-12 01:18:00,
2013-01-11 17:23:00,29.8,29.1,30.27,SE,135,0.0,0.0,97,0.00,,,0.00,WUHU21623XXSP,2013-01-12 01:23:00,
2013-01-11 17:28:00,29.7,29.1,30.26,SE,135,0.0,0.0,97,0.00,,,0.00,WUHU21623XXSP,2013-01-12 01:28:00,
2013-01-11 17:33:00,29.7,28.9,30.26,SE,135,0.0,0.0,97,0.00,,,0.00,WUHU21623XXSP,2013-01-12 01:33:00,
2013-01-11 17:38:00,29.5,28.7,30.26,SE,135,0.0,0.0,97,0.00,,,0.00,WUHU21623XXSP,2013-01-12 01:38:00,
2013-01-11 17:43:00,29.3,28.5,30.26,SE,135,0.0,0.0,97,0.00,,,0.00,WUHU21623XXSP,2013-01-12 01:43:00,
2013-01-11 17:48:00,29.3,28.5,30.26,SE,135,0.0,0.0,97,0.00,,,0.00,WUHU21623XXSP,2013-01-12 01:48:00,
2013-01-11 17:53:00,29.3,28.5,30.26,SE,135,0.0,0.0,97,0.00,,,0.00,WUHU21623XXSP,2013-01-12 01:53:00,
2013-01-11 17:58:00,29.1,28.4,30.26,SE,135,0.0,0.0,97,0.00,,,0.00,WUHU21623XXSP,2013-01-12 01:58:00,
2013-01-11 18:03:00,29.1,28.4,30.26,SE,135,0.0,0.0,97,0.00,,,0.00,WUHU21623XXSP,2013-01-12 02:03:00,
2013-01-11 18:08:00,29.1,28.4,30.26,SE,135,0.0,0.0,97,0.00,,,0.00,WUHU21623XXSP,2013-01-12 02:08:00,
2013-01-11 18:13:00,28.9,28.2,30.26,SE,135,0.0,0.0,97,0.00,,,0.00,WUHU21623XXSP,2013-01-12 02:13:00,
2013-01-11 18:18:00,28.9,28.2,30.26,SE,135,0.0,0.0,97,0.00,,,0.00,WUHU21623XXSP,2013-01-12 02:18:00,
2013-01-11 18:23:00,28.8,28.2,30.26,SE,135,0.0,0.0,97,0.00,,,0.00,WUHU21623XXSP,2013-01-12 02:23:00,
2013-01-11 18:28:00,28.8,28.2,30.26,SE,135,0.0,0.0,97,0.00,,,0.00,WUHU21623XXSP,2013-01-12 02:28:00,
2013-01-11 18:33:00,28.8,28.0,30.26,SE,135,0.0,0.0,97,0.00,,,0.00,WUHU21623XXSP,2013-01-12 02:33:00,
2013-01-11 18:38:00,28.6,27.8,30.26,SE,135,0.0,0.0,97,0.00,,,0.00,WUHU21623XXSP,2013-01-12 02:38:00,
2013-01-11 18:43:00,28.6,27.8,30.26,SE,135,0.0,0.0,97,0.00,,,0.00,WUHU21623XXSP,2013-01-12 02:43:00,
2013-01-11 18:48:00,28.6,27.8,30.26,SE,135,0.0,0.0,97,0.00,,,0.00,WUHU21623XXSP,2013-01-12 02:48:00,
2013-01-11 18:53:00,28.6,27.8,30.26,SE,135,0.0,0.0,97,0.00,,,0.00,WUHU21623XXSP,2013-01-12 02:53:00,
2013-01-11 18:58:00,28.2,27.5,30.26,SE,135,0.0,0.0,97,0.00,,,0.00,WUHU21623XXSP,2013-01-12 02:58:00,
2013-01-11 19:03:00,28.2,27.5,30.26,SE,135,0.0,0.0,97,0.00,,,0.00,WUHU21623XXSP,2013-01-12 03:03:00,
2013-01-11 19:08:00,28.2,27.5,30.26,SE,135,0.0,0.0,97,0.00,,,0.00,WUHU21623XXSP,2013-01-12 03:08:00,
2013-01-11 19:13:00,28.0,27.3,30.26,SE,135,0.0,0.0,97,0.00,,,0.00,WUHU21623XXSP,2013-01-12 03:13:00,
2013-01-11 19:18:00,28.0,27.3,30.26,SE,135,0.0,0.0,97,0.00,,,0.00,WUHU21623XXSP,2013-01-12 03:18:00,
2013-01-11 19:23:00,28.0,27.3,30.26,SE,135,0.0,0.0,97,0.00,,,0.00,WUHU21623XXSP,2013-01-12 03:23:00,
2013-01-11 19:28:00,27.7,26.9,30.26,SE,135,0.0,0.0,97,0.00,,,0.00,WUHU21623XXSP,2013-01-12 03:28:00,
2013-01-11 19:33:00,27.7,26.9,30.25,SE,135,0.0,0.0,97,0.00,,,0.00,WUHU21623XXSP,2013-01-12 03:33:00,
2013-01-11 19:38:00,27.7,26.9,30.25,SE,135,0.0,0.0,97,0.00,,,0.00,WUHU21623XXSP,2013-01-12 03:38:00,
2013-01-11 19:43:00,27.5,26.7,30.26,SE,135,0.0,0.0,97,0.00,,,0.00,WUHU21623XXSP,2013-01-12 03:43:00,
2013-01-11 19:48:00,27.5,26.7,30.25,SE,135,0.0,0.0,97,0.00,,,0.00,WUHU21623XXSP,2013-01-12 03:48:00,
2013-01-11 19:53:00,27.3,26.7,30.25,SE,135,0.0,0.0,97,0.00,,,0.00,WUHU21623XXSP,2013-01-12 03:53:00,
2013-01-11 19:58:00,27.3,26.6,30.25,SE,135,0.0,0.0,97,0.00,,,0.00,WUHU21623XXSP,2013-01-12 03:58:00,
2013-01-11 20:03:00,27.3,26.6,30.25,SE,135,0.0,0.0,97,0.00,,,0.00,WUHU21623XXSP,2013-01-12 04:03:00,
2013-01-11 20:08:00,27.3,26.6,30.25,SE,135,0.0,0.0,97,0.00,,,0.00,WUHU21623XXSP,2013-01-12 04:08:00,
2013-01-11 20:13:00,27.1,26.6,30.25,SE,135,0.0,0.0,97,0.00,,,0.00,WUHU21623XXSP,2013-01-12 04:13:00,
2013-01-11 20:18:00,27.1,26.4,30.25,SE,135,0.0,0.0,97,0.00,,,0.00,WUHU21623XXSP,2013-01-12 04:18:00,
2013-01-11 20:23:00,27.1,26.4,30.25,SE,135,0.0,0.0,97,0.00,,,0.00,WUHU21623XXSP,2013-01-12 04:23:00,
2013-01-11 20:28:00,27.1,26.4,30.25,SE,135,0.0,0.0,97,0.00,,,0.00,WUHU21623XXSP,2013-01-12 04:28:00,
2013-01-11 20:33:00,27.1,26.4,30.25,SE,135,0.0,0.0,97,0.00,,,0.00,WUHU21623XXSP,2013-01-12 04:33:00,
2013-01-11 20:38:00,27.1,26.4,30.25,SE,135,0.0,0.0,97,0.00,,,0.00,WUHU21623XXSP,2013-01-12 04:38:00,
2013-01-11 20:43:00,27.1,26.4,30.25,SE,135,0.0,0.0,97,0.00,,,0.00,WUHU21623XXSP,2013-01-12 04:43:00,
2013-01-11 20:48:00,27.1,26.4,30.25,SE,135,0.0,0.0,97,0.00,,,0.00,WUHU21623XXSP,2013-01-12 04:48:00,
2013-01-11 20:53:00,27.1,26.4,30.25,SE,135,0.0,0.0,97,0.00,,,0.00,WUHU21623XXSP,2013-01-12 04:53:00,
2013-01-11 20:58:00,27.1,26.4,30.26,SE,135,0.0,0.0,97,0.00,,,0.00,WUHU21623XXSP,2013-01-12 04:58:00,
2013-01-11 21:00:00,27.1,26.4,30.26,SE,135,0.0,0.0,97,0.00,,,0.00,WUHU21623XXSP,2013-01-12 05:00:00,
2013-01-11 21:01:00,27.1,26.4,30.26,SE,135,0.0,0.0,97,0.00,,,0.00,WUHU21623XXSP,2013-01-12 05:01:00,
2013-01-11 21:03:00,27.1,26.4,30.26,SE,135,0.0,0.0,97,0.00,,,0.00,WUHU21623XXSP,2013-01-12 05:03:00,
2013-01-11 21:08:00,27.0,26.2,30.26,SE,135,0.0,0.0,97,0.00,,,0.00,WUHU21623XXSP,2013-01-12 05:08:00,
2013-01-11 21:13:00,27.0,26.2,30.26,SE,135,0.0,0.0,97,0.00,,,0.00,WUHU21623XXSP,2013-01-12 05:13:00,
2013-01-11 21:18:00,27.0,26.0,30.26,SE,135,0.0,0.0,96,0.00,,,0.00,WUHU21623XXSP,2013-01-12 05:18:00,
2013-01-11 21:23:00,26.8,26.0,30.26,SE,135,0.0,0.0,97,0.00,,,0.00,WUHU21623XXSP,2013-01-12 05:23:00,
2013-01-11 21:28:00,26.8,25.8,30.26,SE,135,0.0,0.0,96,0.00,,,0.00,WUHU21623XXSP,2013-01-12 05:28:00,
2013-01-11 21:33:00,26.8,25.8,30.26,SE,135,0.0,0.0,97,0.00,,,0.00,WUHU21623XXSP,2013-01-12 05:33:00,
2013-01-11 21:38:00,26.8,26.0,30.26,SE,135,0.0,0.0,97,0.00,,,0.00,WUHU21623XXSP,2013-01-12 05:38:00,
2013-01-11 21:43:00,26.8,26.0,30.26,SE,135,0.0,0.0,97,0.00,,,0.00,WUHU21623XXSP,2013-01-12 05:43:00,
2013-01-11 21:48:00,26.8,26.0,30.26,SE,135,0.0,0.0,97,0.00,,,0.00,WUHU21623XXSP,2013-01-12 05:48:00,
2013-01-11 21:53:00,26.6,25.8,30.26,SE,135,0.0,0.0,97,0.00,,,0.00,WUHU21623XXSP,2013-01-12 05:53:00,
2013-01-11 21:58:00,26.4,25.7,30.27,SE,135,0.0,0.0,96,0.00,,,0.00,WUHU21623XXSP,2013-01-12 05:58:00,
2013-01-11 22:03:00,26.4,25.4,30.26,SE,135,0.0,0.0,96,0.00,,,0.00,WUHU21623XXSP,2013-01-12 06:03:00,
2013-01-11 22:08:00,26.4,25.4,30.26,SE,135,0.0,0.0,96,0.00,,,0.00,WUHU21623XXSP,2013-01-12 06:08:00,
2013-01-11 22:13:00,26.2,25.2,30.27,SE,135,0.0,0.0,96,0.00,,,0.00,WUHU21623XXSP,2013-01-12 06:13:00,
2013-01-11 22:18:00,26.2,25.2,30.27,SE,135,0.0,0.0,96,0.00,,,0.00,WUHU21623XXSP,2013-01-12 06:18:00,
2013-01-11 22:23:00,26.2,25.2,30.27,SE,135,0.0,0.0,96,0.00,,,0.00,WUHU21623XXSP,2013-01-12 06:23:00,
2013-01-11 22:28:00,26.2,25.2,30.26,SE,135,0.0,0.0,96,0.00,,,0.00,WUHU21623XXSP,2013-01-12 06:28:00,
2013-01-11 22:33:00,26.2,25.2,30.27,SE,135,0.0,0.0,96,0.00,,,0.00,WUHU21623XXSP,2013-01-12 06:33:00,
2013-01-11 22:38:00,26.1,25.1,30.27,SE,135,0.0,0.0,96,0.00,,,0.00,WUHU21623XXSP,2013-01-12 06:38:00,
2013-01-11 22:43:00,25.9,24.9,30.27,SE,135,0.0,0.0,96,0.00,,,0.00,WUHU21623XXSP,2013-01-12 06:43:00,
2013-01-11 22:48:00,25.9,24.9,30.27,SE,135,0.0,0.0,96,0.00,,,0.00,WUHU21623XXSP,2013-01-12 06:48:00,
2013-01-11 22:53:00,25.7,24.7,30.27,SE,135,0.0,0.0,96,0.00,,,0.00,WUHU21623XXSP,2013-01-12 06:53:00,
2013-01-11 22:58:00,25.5,24.5,30.27,SE,135,0.0,0.0,96,0.00,,,0.00,WUHU21623XXSP,2013-01-12 06:58:00,
2013-01-11 23:03:00,25.5,24.5,30.27,SE,135,0.0,0.0,96,0.00,,,0.00,WUHU21623XXSP,2013-01-12 07:03:00,
2013-01-11 23:08:00,25.5,24.5,30.27,SE,135,0.0,0.0,96,0.00,,,0.00,WUHU21623XXSP,2013-01-12 07:08:00,
2013-01-11 23:13:00,25.3,24.3,30.27,SE,135,0.0,0.0,96,0.00,,,0.00,WUHU21623XXSP,2013-01-12 07:13:00,
2013-01-11 23:18:00,25.3,24.3,30.27,SE,135,0.0,0.0,96,0.00,,,0.00,WUHU21623XXSP,2013-01-12 07:18:00,
2013-01-11 23:23:00,25.3,24.3,30.27,SE,135,0.0,0.0,96,0.00,,,0.00,WUHU21623XXSP,2013-01-12 07:23:00,
2013-01-11 23:28:00,25.3,24.3,30.26,SE,135,0.0,0.0,96,0.00,,,0.00,WUHU21623XXSP,2013-01-12 07:28:00,
2013-01-11 23:33:00,25.3,24.3,30.26,SE,135,0.0,0.0,96,0.00,,,0.00,WUHU21623XXSP,2013-01-12 07:33:00,
2013-01-11 23:38:00,25.3,24.3,30.26,SE,135,0.0,0.0,96,0.00,,,0.00,WUHU21623XXSP,2013-01-12 07:38:00,
2013-01-11 23:43:00,25.3,24.3,30.26,SE,135,0.0,0.0,96,0.00,,,0.00,WUHU21623XXSP,2013-01-12 07:43:00,
2013-01-11 23:48:00,25.3,24.3,30.26,SE,135,0.0,0.0,96,0.00,,,0.00,WUHU21623XXSP,2013-01-12 07:48:00,
2013-01-11 23:53:00,25.3,24.3,30.26,SE,135,0.0,0.0,96,0.00,,,0.00,WUHU21623XXSP,2013-01-12 07:53:00,
2013-01-11 23:58:00,25.3,24.3,30.25,SE,135,0.0,0.0,96,0.00,,,0.00,WUHU21623XXSP,2013-01-12 07:58:00,